CST,Max TemperatureF,Mean TemperatureF,Min TemperatureF,Max Dew PointF,MeanDew PointF,Min DewpointF,Max Humidity, Mean Humidity, Min Humidity, Max Sea Level PressureIn, Mean Sea Level PressureIn, Min Sea Level PressureIn, Max VisibilityMiles, Mean VisibilityMiles, Min VisibilityMiles, Max Wind SpeedMPH, Mean Wind SpeedMPH, Max Gust SpeedMPH,PrecipitationIn, CloudCover, Events, WindDirDegrees
2014-1-1,39,27,15,28,21,10,93,78,59,30.39,30.07,29.88,10,8,0,29,12,34,2.46,4,Rain-Snow,20
2014-1-2,41,24,8,28,17,3,93,76,56,30.47,30.39,30.31,10,10,8,21,11,24,0.00,0,Rain,217
2014-1-3,50,36,23,27,23,19,86,63,40,30.30,30.00,29.67,10,10,10,31,16,39,0.00,1,,180
2014-1-4,44,32,19,28,23,18,93,67,46,30.07,29.80,29.61,10,9,0,29,19,39,1.59,4,Rain-Snow,357
2014-1-5,21,13,5,18,6,0,93,68,49,30.59,30.33,30.05,10,7,1,26,18,34,1.48,5,Rain-Snow,355
2014-1-6,21,10,-2,5,0,-8,85,67,42,30.66,30.54,30.35,10,10,9,12,7,,0.00,2,,295
2014-1-7,48,27,6,27,17,1,85,62,37,30.35,30.16,30.03,10,10,10,18,10,20,0.00,0,,200
2014-1-8,39,32,26,32,24,18,100,69,52,30.25,30.12,30.02,10,9,1,15,9,,0.00,4,Rain,108
2014-1-9,35,34,32,36,33,32,100,96,87,30.22,30.09,29.89,9,4,0,18,8,24,0.00,8,Fog-Rain,137
2014-1-10,53,42,30,41,31,19,100,71,26,29.87,29.71,29.63,10,9,4,31,16,36,0.00,2,,261
2014-1-11,59,44,30,28,24,19,87,55,22,30.04,29.94,29.82,10,10,10,20,11,26,0.00,1,,266
2014-1-12,73,52,32,30,25,19,69,35,16,29.84,29.65,29.50,10,10,10,29,18,34,0.00,2,,243
2014-1-13,57,44,32,28,18,12,64,39,18,30.04,29.95,29.82,10,10,8,21,12,26,0.00,2,,286
2014-1-14,50,41,32,32,19,7,65,41,20,30.35,30.17,29.90,10,10,10,29,15,36,0.00,3,,328
2014-1-15,57,40,24,25,22,19,86,52,27,30.35,30.16,29.91,10,10,9,18,10,24,0.00,2,,256
2014-1-16,55,46,37,25,14,0,56,31,12,30.26,30.08,29.91,10,10,7,32,16,43,0.00,2,,333
2014-1-17,50,34,19,18,12,7,68,40,19,30.31,30.20,30.02,10,10,9,17,10,22,0.00,1,,277
2014-1-18,59,46,32,23,19,16,55,40,20,30.22,30.06,29.96,10,10,8,30,13,34,0.00,0,,311
2014-1-19,75,49,23,21,18,16,74,41,11,30.21,30.03,29.86,10,10,7,24,10,34,0.00,2,,234
2014-1-20,59,46,32,25,19,16,56,37,20,30.40,30.05,29.84,10,10,10,29,12,37,0.00,2,,349
2014-1-21,35,26,17,16,6,1,58,44,28,30.50,30.32,30.09,10,10,10,25,13,38,0.00,2,,97
2014-1-22,46,32,19,23,18,7,69,53,40,30.41,30.19,30.09,10,10,10,26,9,32,0.00,1,,27
2014-1-23,26,16,5,9,-8,-11,52,38,24,30.84,30.70,30.42,10,10,9,28,18,34,0.00,4,,11
2014-1-24,55,30,5,16,6,-9,72,41,17,30.72,30.30,30.02,10,10,9,25,13,31,0.00,2,,234
2014-1-25,62,47,32,32,26,16,70,45,27,30.11,30.03,29.89,10,10,10,17,11,26,0.00,3,,291
2014-1-26,62,47,32,28,24,3,75,48,22,30.18,29.83,29.73,10,10,3,37,12,52,0.00,3,,346
2014-1-27,30,22,14,10,-5,-11,86,35,24,30.48,30.40,30.20,10,9,1,32,19,44,0.24,8,Rain-Snow,31
2014-1-28,32,18,5,19,12,1,93,79,55,30.51,30.41,30.32,10,9,1,15,6,21,0.02,2,Snow,268
2014-1-29,51,30,8,16,9,7,92,50,16,30.32,30.09,29.83,10,10,10,30,13,37,0.00,1,,206
2014-1-30,53,42,32,23,16,7,56,38,26,29.87,29.74,29.61,10,10,10,30,19,36,0.00,2,,150
2014-1-31,33,28,24,25,21,18,93,78,55,29.96,29.88,29.80,10,8,1,23,16,31,0.00,8,Rain,33